Location: Central Falls
(41.8900°N, 71.3929°W)
Time: 11:40:39
(UTC+00:00)

A-11 Canister half - Pass Details

Date: 10 December 2023
Orbit: 1526 x 1682 km, 47.3° (Epoch: 20 February)

Event Time Altitude Azimuth Distance (km) Brightness Sun altitude
Rises 02:43:51 0° 288° (WNW) 4,935 12.1 -59.5°
Reaches altitude 10° 02:47:04 10° 291° (WNW) 3,941 11.4 -60.1°
Enters shadow 02:49:08 18° 293° (WNW) 3,317 10.9 -60.4°
Maximum altitude 02:57:13 74° 16° (NNE) 1,712 - -61.7°
Drops below altitude 10° 03:07:05 10° 102° (ESE) 3,840 - -63.1°
Sets 03:10:10 0° 104° (ESE) 4,804 - -63.6°
